Find LizzieSat-3

NORAD ID: 63233 Int'l Des: 2025-052 Owner: SIDUS Country: US operational
LEOCIRCULARRETROGRADESSO

实时位置

正在加载3D地球...

关于 LizzieSat-3

正在加载描述...

即将过境

Passes for default location (London). Set your location on the main map for personalized predictions.

高度历史

Loading altitude history...

两行轨道根数

1 63233U 25052Z 26107.12677521 .00003271 00000-0 14980-3 0 9996
2 63233 97.3989 0.0472 0006806 31.7549 328.4096 15.21177327 60527
Epoch: Apr 17, 2026 • Age: 16 hours

当前状态

高度 514.3 km
速度 7.61 km/s
星下点 -36.45°S, 119.79°W
发射日期 Mar 15, 2025
运行时间 1 years
类型 other

技术详情

分类 Payload
质量 100.00 kg
干质量 100.00 kg
总质量 100.00 kg
长度 0.40 m
直径 0.80 m
跨度 1.40 m
形状 Oct cyl+8 pan
制造商 SIDUS
平台类型 LizzieSat
阶段状态 In Orbit
所有者/国家 SIDUS/US

Most Searched